Preview of NWS' New Version of Forecast
This preview is not operational and should not be used for support decisions.

Regional Weather Roundup (RWR)

Issued by National Weather Service (NWS)

                            
000
ASUS46 KSEW 200410
RWRWA 

WASHINGTON REGIONAL WEATHER ROUNDUP
NATIONAL WEATHER SERVICE SEATTLE WA
800 PM PST TUE FEB 19 2019

NOTE:"FAIR" INDICATES FEW OR NO CLOUDS BELOW 12,000 FEET WITH NO 
SIGNIFICANT WEATHER AND/OR OBSTRUCTIONS TO VISIBILITY.

WAZ507-509-555>559-200500-
SEATTLE, TACOMA, EVERETT, AND VICINITY
  
CITY           SKY/WX    TMP DP  RH WIND       PRES   REMARKS
EVERETT        LGT RAIN  37  36  96 SE3       29.86F FOG              
BOEING FIELD   LGT RAIN  43  37  79 S3        29.88F                  
RENTON         CLOUDY    43  38  82 CALM      29.89F                  
SEATAC AIRPORT CLOUDY    42  37  82 SW8       29.88F                  
JBLM-MCCHORD   CLOUDY    39  39 100 SW10      29.88F                  
PUYALLUP       CLOUDY    39  39 100 VRB5G12   29.88F                  
BREMERTON      CLOUDY    38  36  92 S3        29.87F                  
JBLM-FT LEWIS  PTCLDY    39  39 100 SE9       29.88F                  
TACOMA NARROWS CLOUDY    40  36  86 SW10      29.88F                  
$$
 
WAZ001-503-506-510-514-515-200500-
NORTH INTERIOR
  
CITY           SKY/WX    TMP DP  RH WIND       PRES   REMARKS
BELLINGHAM     CLOUDY    36  33  89 S5        29.86F                  
FRIDAY HARBOR  MOCLDY    39  35  86 CALM      29.88F                  
EASTSOUND      CLOUDY    39  37  93 VRB6G13   29.86F                  
PORT ANGELES   CLOUDY    38  35  89 W12       29.88F                  
EDIZ HOOK      CLOUDY    41  37  86 W13       29.88F                  
PORT TOWNSEND  CLOUDY    37  37 100 CALM      29.87S                  
NAS WHIDBEY    LGT RAIN  45  41  86 NW15      29.90F                  
ARLINGTON      LGT RAIN  36  35  96 S3        29.88F                  
BURLINGTON     CLOUDY    36  36 100 NE3       29.87F                  
$$
 
WAZ020-022-039-040-504-511-512-200500-
SOUTHWEST INTERIOR
  
CITY           SKY/WX    TMP DP  RH WIND       PRES   REMARKS
SHELTON        CLOUDY    39  35  86 SW9       29.86F                  
OLYMPIA        MOCLDY    39  37  92 SW12      29.90F                  
CHEHALIS       LGT RAIN  41  39  93 S6        29.92F                  
KELSO          RAIN      41  37  86 SW6       29.97F                  
VANCOUVER      CLOUDY    43  38  82 S7        29.97F                  
SCAPPOOSE, OR  LGT RAIN  44  39  82 SW3       29.96F                  
PORTLAND, OR   CLOUDY    43  39  86 SW12      29.97F                  
$$
 
WAZ021-516-517-200500-
WASHINGTON COAST
  
CITY           SKY/WX    TMP DP  RH WIND       PRES   REMARKS
FORKS          MOCLDY    39  29  67 N3        29.90F                  
HOQUIAM        MOCLDY    42  39  89 W5        29.93F                  
ASTORIA, OR    MOCLDY    43  41  93 W9        29.95F                  
$$
 
WAZ019-023-024-040-567>569-200500-
CASCADE MOUNTAINS AND COLUMBIA GORGE
  
CITY           SKY/WX    TMP DP  RH WIND       PRES   REMARKS
STAMPEDE PASS  SNOW      28  25  88 VRB6      29.71F VSB 1/2          
TROUTDALE, OR  LGT RAIN  43  39  86 SW13      29.97F                  
HOOD RIVER, OR DRIZZLE   36  34  93 CALM      29.91F                  
THE DALLES, OR MOCLDY    39  32  76 SE3       29.92F                  
$$

WAZ026-027-041>044-520-521-200500-
EAST SLOPES
  
CITY           SKY/WX    TMP DP  RH WIND       PRES   REMARKS
OMAK           CLOUDY    24  16  71 CALM      29.90F                  
WENATCHEE      PTCLDY    19  13  77 E3        29.88F                  
ELLENSBURG     FLURRIES  32  24  72 E6        29.80F                  
YAKIMA         PTCLDY    22  18  85 CALM      29.87F                  
SUNNYSIDE ARPT CLOUDY    22  21  96 CALM      29.90  FOG              
YAKIMA TC      FAIR      21  17  84 CALM      29.84F                  
$$

WAZ028-034-035-200500-
COLUMBIA BASIN
  
CITY           SKY/WX    TMP DP  RH WIND       PRES   REMARKS
EPHRATA        CLOUDY    21  15  78 N5        29.87F                  
MOSES LAKE     CLOUDY    25  17  72 N5        29.88F                  
PASCO          CLOUDY    27  24  89 CALM      29.92F                  
RICHLAND ARPT  CLOUDY    27  24  87 CALM      29.92F                  
HERMISTON, OR  CLOUDY    39  30  70 SW8       29.89F                  
$$

WAZ036>038-200500-
NORTHEAST WASHINGTON
  
CITY           SKY/WX    TMP DP  RH WIND       PRES   REMARKS
SPOKANE GEIGER LGT SNOW  22  19  89 S3        29.82F FOG              
SPOKANE FELTS  LGT SNOW  24  21  88 E5        29.85F FOG              
FAIRCHILD AFB  LGT SNOW  21  21 100 SE3       29.81F FOG              
COEURDALENE,ID LGT SNOW  20  18  92 CALM      29.84F FOG              
DEER PARK      CLOUDY    20  18  92 CALM      29.84F FOG              
$$

WAZ029>033-200500-
SOUTHEAST WASHINGTON
  
CITY           SKY/WX    TMP DP  RH WIND       PRES   REMARKS
PULLMAN        LGT SNOW  24  21  88 E7        29.84F FOG              
LEWISTON, ID   LGT SNOW  27  24  89 CALM      29.89F FOG              
WALLA WALLA    FLURRIES  35  31  85 S12       29.89F WCI  27          
PENDLETON, OR  LGT RAIN  36  32  85 SW13      29.87F                  
$$